Rochester, Indiana, United States (46975)
Lat: 41.06N, Lon: 86.22W
Wx Zone: INZ015
Local Info
Past Weather Observations for Today

NOTE: This archive is for the closest National Weather Service station to Rochester. Information may differ from the station used for current weather conditions.

Click here for Long-term Archive

Time Weather Temperature Dewpoint Humidity Pressure Winds Precip Visibility
12:55
Clear
68°F / 20°C 50°F / 10°C 53% 30.36 in
(1028 mb)
E 3.5 mph
(E 6 kph)
- 10SM
12:35
Clear
66°F / 19°C 46°F / 8°C 49% 30.36 in
(1028 mb)
Calm - 10SM
12:15
Clear
66°F / 19°C 46°F / 8°C 49% 30.36 in
(1028 mb)
NE 4.6 mph
(NE 7 kph)
- 10SM
11:55
Clear
64°F / 18°C 48°F / 9°C 56% 30.36 in
(1028 mb)
Calm - 10SM
11:35
Clear
64°F / 18°C 48°F / 9°C 56% 30.36 in
(1028 mb)
Calm - 10SM
11:15
Clear
63°F / 17°C 46°F / 8°C 56% 30.36 in
(1028 mb)
Calm - 10SM
10:55
Clear
63°F / 17°C 46°F / 8°C 56% 30.36 in
(1028 mb)
Calm - 10SM
10:35
Clear
63°F / 17°C 48°F / 9°C 59% 30.36 in
(1028 mb)
Calm - 10SM
10:15
Clear
61°F / 16°C 46°F / 8°C 59% 30.36 in
(1028 mb)
Calm - 10SM
09:55
Clear
59°F / 15°C 46°F / 8°C 63% 30.36 in
(1028 mb)
Calm - 10SM
09:35
Clear
57°F / 14°C 46°F / 8°C 67% 30.36 in
(1028 mb)
Calm - 10SM
09:15
Clear
55°F / 13°C 46°F / 8°C 72% 30.36 in
(1028 mb)
Calm - 10SM
08:55
Clear
54°F / 12°C 50°F / 10°C 88% 30.36 in
(1028 mb)
Calm - 10SM
08:15
Clear
48°F / 9°C 48°F / 9°C 100% 30.36 in
(1028 mb)
Calm - 10SM
07:55
Clear
45°F / 7°C 45°F / 7°C 100% 30.36 in
(1028 mb)
Calm - 7SM
07:35
Clear
43°F / 6°C 43°F / 6°C 100% 30.33 in
(1027 mb)
Calm - 10SM
07:15
Clear
41°F / 5°C 41°F / 5°C 100% 30.33 in
(1027 mb)
Calm - 7SM
06:55
Clear
Fog And Mist
41°F / 5°C 41°F / 5°C 100% 30.33 in
(1027 mb)
Calm - 5SM
06:35
Partly Cloudy
Fog And Mist
41°F / 5°C 41°F / 5°C 100% 30.33 in
(1027 mb)
Calm - 5SM
06:15
Mostly Cloudy
Fog
41°F / 5°C 41°F / 5°C 100% 30.33 in
(1027 mb)
Calm - 1/2SM
05:55
Clear
Fog And Mist
41°F / 5°C 41°F / 5°C 100% 30.33 in
(1027 mb)
Calm - 5SM
05:35
Clear
41°F / 5°C 41°F / 5°C 100% 30.33 in
(1027 mb)
Calm - 7SM
05:15
Clear
Fog And Mist
41°F / 5°C 41°F / 5°C 100% 30.3 in
(1026 mb)
Calm - 3SM
04:55
Clear
41°F / 5°C 41°F / 5°C 100% 30.3 in
(1026 mb)
Calm - 7SM
04:35
Clear
Fog And Mist
41°F / 5°C 41°F / 5°C 100% 30.3 in
(1026 mb)
Calm - 5SM
04:15
Clear
41°F / 5°C 41°F / 5°C 100% 30.3 in
(1026 mb)
Calm - 7SM
03:55
Clear
Fog And Mist
41°F / 5°C 41°F / 5°C 100% 30.3 in
(1026 mb)
Calm - 5SM
03:35
Clear
Fog And Mist
41°F / 5°C 41°F / 5°C 100% 30.3 in
(1026 mb)
Calm - 4SM
03:15
Clear
Fog And Mist
41°F / 5°C 41°F / 5°C 100% 30.3 in
(1026 mb)
Calm - 2 1/2SM
02:55
Clear
43°F / 6°C 43°F / 6°C 100% 30.3 in
(1026 mb)
Calm - 7SM
02:35
Clear
43°F / 6°C 43°F / 6°C 100% 30.3 in
(1026 mb)
Calm - 7SM
02:15
Clear
Fog And Mist
43°F / 6°C 43°F / 6°C 100% 30.3 in
(1026 mb)
Calm - 4SM
01:55
Clear
Fog And Mist
43°F / 6°C 41°F / 5°C 93% 30.3 in
(1026 mb)
Calm - 4SM
01:35
Clear
Fog And Mist
43°F / 6°C 43°F / 6°C 100% 30.3 in
(1026 mb)
Calm - 5SM
01:15
Clear
Fog And Mist
43°F / 6°C 43°F / 6°C 100% 30.3 in
(1026 mb)
Calm - 5SM
00:55
Clear
43°F / 6°C 43°F / 6°C 100% 30.3 in
(1026 mb)
Calm - 7SM
00:35
Clear
Fog And Mist
43°F / 6°C 43°F / 6°C 100% 30.3 in
(1026 mb)
Calm - 2 1/2SM
00:15
Clear
Fog And Mist
45°F / 7°C 43°F / 6°C 93% 30.3 in
(1026 mb)
Calm - 4SM
Time Weather Temperature Dewpoint Humidity Pressure Winds Precip Visibility


Weather for websites

WeatherForYou.com, LLC is not responsible for any damages or problems caused by this service. Current weather conditions are obtained from the closest station including government and personal stations which may have varying degrees of accuracy. Weather forecasts are derived from the NOAA NDFD. Like all things, this site belongs to Jesus Christ... He just trusts me to maintain it. If you have any questions or comments email webmaster@weatherforyou.com

Copyright © 2014, WeatherForYou.com LLC. All rights reserved.